Location: Matagami
(49.7589°N, 77.6258°W)
Time: 19:03:39
(UTC-04:00)

ISS - Pass Details

Date: 25 April 2021
Orbit: 418 x 421 km, 51.6° (Epoch: 05 May)

Event Time Altitude Azimuth Distance (km) Brightness Sun altitude
Exits shadow 05:10:41 - 188° (S) 2,361 -0.3 -7.7°
Rises 05:10:42 0° 188° (S) 2,355 -0.3 -7.6°
Reaches altitude 10° 05:14:19 10° 147° (SSE) 1,499 -0.9 -7.1°
Maximum altitude 05:15:04 11° 134° (SE) 1,466 -0.8 -7.0°
Drops below altitude 10° 05:15:48 10° 122° (ESE) 1,502 -0.5 -6.9°
Sets 05:19:26 0° 81° (E) 2,373 1.6 -6.4°
